Flag for Germany Weather past 2 weeks in Friesoythe, Lower Saxony, Germany

Now
73 °F

Passing clouds.


Feels Like: 75 °F
Forecast: 59 / 74 °F
Wind: 6 mph from Northeast

Location: Meppen-Mil

Current Time: Jul 29, 2014 at 10:48:51 AM

Latest Report: Jul 29, 2014 at 9:20 AM


Visibility: N/A

Pressure: 29.86 "Hg

Humidity: 74%

Dew point: 64 °F

Location of FriesoytheLocation

Historic Weather in Friesoythe — Graph

°F

Friesoythe temperature yesterday

Maximum temperature yesterday: 79 °F (at 3:20 PM)
Minimum temperature yesterday: 59 °F (at 3:20 AM)
Average temperature yesterday: 69 °F

Past Weeks' High & Low Weather Summary

 TemperatureHumidityPressure
High93 °F (Jul 19, 2:20 PM)100% (Jul 27, 3:20 AM)30.18 "Hg (Jul 27, 3:20 AM)
Low54 °F (Jul 16, 4:20 AM)21% (Jul 19, 3:20 PM)29.74 "Hg (Jul 20, 6:20 PM)
Average69 °F72%29.99 "Hg
* Reported Jul 14 9:20 AM — Jul 29 9:20 AM, Friesoythe, Weather by CustomWeather, © 2014

Note: Actual official high and low records may vary slightly from our data, if they occured in-between our weather recording intervals... More about our weather records

Advertising

Friesoythe weather history for previous 24 hours

 ConditionsComfort  
Time TempWeatherWind HumidityBarometerVisibility
9:20 AM
Jul 29
73 °FPassing clouds.6 mph74%29.86 "HgN/A
8:20 AM68 °FPassing clouds.6 mph88%29.86 "Hg4 mi
7:20 AM66 °FFog.7 mph94%29.86 "Hg2 mi
6:20 AM64 °FFog.7 mph94%29.86 "Hg2 mi
5:20 AM64 °FMild.7 mph94%29.86 "Hg2 mi
4:20 AM64 °FMild.8 mph94%29.86 "Hg3 mi
3:20 AM66 °FMild.7 mph88%29.86 "Hg3 mi
2:20 AM66 °FMild.7 mph88%29.86 "Hg4 mi
1:20 AM66 °FMild.6 mph88%29.89 "Hg4 mi
12:20 AM68 °FMild.3 mph83%29.89 "Hg5 mi
11:20 PM
Jul 28
70 °FMild.7 mph78%29.89 "Hg6 mi
10:20 PM72 °FMild.8 mph73%29.89 "Hg6 mi
9:20 PM72 °FMild.8 mph78%29.89 "Hg6 mi
8:20 PM75 °FMild.6 mph69%29.86 "Hg6 mi
7:20 PM75 °FMild.6 mph65%29.86 "HgN/A
6:20 PM77 °FWarm.6 mph57%29.86 "HgN/A
5:20 PM79 °FWarm.9 mph54%29.86 "Hg5 mi
4:20 PM79 °FPassing clouds.10 mph51%29.86 "HgN/A
3:20 PM79 °FPassing clouds.9 mph54%29.89 "HgN/A
2:20 PM77 °FPassing clouds.9 mph61%29.89 "HgN/A
1:20 PM75 °FPassing clouds.7 mph65%29.92 "HgN/A
12:20 PM72 °FScattered clouds.8 mph69%29.92 "HgN/A
11:20 AM72 °FBroken clouds.7 mph73%29.92 "HgN/A
10:20 AM68 °FBroken clouds.7 mph83%29.95 "Hg4 mi
10:03 AM68 °FFog.7 mph83%29.95 "Hg3 mi
Weather by CustomWeather, © 2014

See weather overviewHow to use our weather pages